CHUBUSAT-1
1 40300U 14070C 20086.85606229 .00000732 00000-0 34456-4 0 9991
2 40300 97.2966 158.4616 0020773 139.8163 284.9979 15.22410574298940
QSAT-EOS
1 40301U 14070D 20086.87442291 .00001858 00000-0 72784-4 0 9997
2 40301 97.2988 163.1935 0027002 119.3427 306.9151 15.26703550299334
FIREBIRD FU3
1 40377U 15003B 20086.83991879 .00001433 00000-0 59188-4 0 9996
2 40377 099.1053 130.1177 0123779 229.5532 129.4853 15.19753697284758
FIREBIRD FU4
1 40378U 15003C 20086.82500295 .00001437 00000-0 59308-4 0 9992
2 40378 099.1055 130.1933 0123963 229.4834 129.5545 15.19768924284758
GRIFEX
1 40379U 15003D 20086.79525943 .00000983 00000-0 45633-4 0 9997
2 40379 099.1128 122.5438 0132350 253.1995 105.4679 15.16196017284315
NO-84
1 40654U 15025D 20085.26688690 .00011271 00000-0 14058-3 0 8871
2 40654 54.9895 328.3185 0119464 331.2594 28.1901 15.52354462155945
DEORBITSAIL
1 40719U 15032E 20086.78204467 .00000358 00000-0 57951-4 0 9993
2 40719 097.8801 337.4185 0017581 112.5899 247.7173 14.76941214253891
NUDT-PHONESAT
1 40900U 15049B 20086.85898472 .00002078 00000-0 89213-4 0 9993
2 40900 97.4330 98.5324 0010797 276.2095 204.6092 15.23785130250619
XW-2A
1 40903U 15049E 20086.87599648 .00001775 00000-0 42457-4 0 9993
2 40903 97.2988 135.7341 0012560 195.8251 218.5161 15.42780090253741
XW-2C
1 40906U 15049H 20086.87290492 .00000698 00000-0 39790-4 0 9990
2 40906 97.4761 89.4468 0013305 305.4667 138.8137 15.15979314249749
XW-2D
1 40907U 15049J 20086.87232545 .00000648 00000-0 36994-4 0 9994
2 40907 97.4751 89.1425 0012552 302.2616 105.3788 15.16199232249768
LILACSAT-2
1 40908U 15049K 20086.88989510 .00000073 00000-0 76478-5 0 9991
2 40908 97.4896 87.6240 0014525 311.7859 114.0080 15.13983388249507
XW-2E
1 40909U 15049L 20086.96196326 .00000902 00000-0 47301-4 0 9999
2 40909 097.4637 092.5685 0011872 292.8151 121.7371 15.18275366250016
XW-2F
1 40910U 15049M 20086.75982671 .00000884 00000-0 47058-4 0 9992
2 40910 97.4678 91.4783 0012939 291.4809 154.6173 15.17785547249794
XW-2B
1 40911U 15049N 20086.92056568 .00000836 00000-0 46781-4 0 9998
2 40911 97.4760 89.8787 0012486 303.0841 117.2216 15.16127951249662
DCBB
1 40912U 15049P 20086.82489789 .00001123 00000-0 55013-4 0 9991
2 40912 97.4499 95.6010 0012919 267.2971 217.1690 15.20159726250165
TW-1C
1 40926U 15051B 20086.86109638 .00018196 00000-0 20370-3 0 9990
2 40926 97.0955 138.2232 0007509 54.5691 60.5241 15.62727057254113
TW-1A
1 40928U 15051D 20086.88545345 .00002717 00000-0 65176-4 0 9999
2 40928 097.1177 116.7108 0012410 122.3416 001.4949 15.42170879252648
IO-86
1 40931U 15052B 20084.71899075 .00000766 00000-0 17502-4 0 9998
2 40931 6.0018 219.7236 0013605 155.9783 204.1542 14.76629852242711
LQSat
1 40958U 15057A 20086.79381431 .00000018 00000-0 10352-4 0 9990
2 40958 97.8616 152.8226 0019305 58.3840 301.9248 14.73112309240337
ATHENOXAT-1
1 41168U 15077C 20086.83427431 .00002105 00000-0 75066-4 0 9994
2 41168 14.9884 307.5360 0011307 57.9500 302.1918 15.14202658236805
ChubuSat-2
1 41338U 16012B 20086.60295086 .00000328 00000-0 18769-4 0 9999
2 41338 031.0025 153.0480 0013796 015.6207 344.4852 15.00263039225288
ChubuSat-3
1 41339U 16012C 20086.80632019 .00000321 00000-0 18174-4 0 9996
2 41339 31.0114 149.4912 0013776 24.4697 335.6583 15.00430167225311
Horyu-4
1 41340U 16012D 20086.53327486 .00000475 00000-0 29240-4 0 9993
2 41340 31.0044 139.8309 0013959 45.5762 314.6015 15.01447658225409
OUFTI-1
1 41458U 16025C 20086.87052715 .00001593 00000-0 82853-4 0 9995
2 41458 098.0967 193.1360 0165512 127.5463 234.0932 15.06622645215046
e-st@r-II
1 41459U 16025D 20086.89260558 .00003079 00000-0 15711-3 0 9993
2 41459 098.0965 192.6378 0167020 129.4555 232.1554 15.06209731215010
AAUSAT4
1 41460U 16025E 20086.82180343 .00003584 00000-0 17736-3 0 9991
2 41460 98.0951 194.6078 0156094 119.5006 242.1860 15.08421778215184
LO-87
1 41557U 16033B 20086.86170233 .00001124 00000-0 44027-4 0 9990
2 41557 097.4029 177.6410 0014197 027.0038 333.1937 15.27830178213167
NuSat2
1 41558U 16033C 20086.86822979 .00001257 00000-0 46123-4 0 9998
2 41558 097.4074 179.6472 0013182 025.5634 334.6256 15.29792041213265
Lapan A3
1 41603U 16040E 20086.91259882 .00000013 00000-0 37172-5 0 9994
2 41603 097.3197 142.9942 0014758 126.9926 338.9284 15.19810130208605
Swayam
1 41607U 16040J 20086.67448400 .00001387 00000-0 60006-4 0 9993
2 41607 97.3272 147.9663 0014816 116.2360 244.0402 15.24004743208810
Pratham
1 41783U 16059A 20086.71912141 .00000049 00000-0 18747-4 0 9990
2 41783 098.0270 144.4628 0032860 214.7707 145.1348 14.63044106186782
AlSat 1N
1 41789U 16059G 20086.73958524 .00000081 00000-0 24271-4 0 9998
2 41789 98.0305 147.1092 0027767 202.1688 157.8305 14.64305065186925
ScatSat
1 41790U 16059H 20086.77972994 .00000013 00000-0 14111-4 0 9998
2 41790 98.1722 129.4822 0005739 162.0517 198.0871 14.50904626185236
TY-1
1 41844U 16066D 20086.93983844 .00000891 00000-0 38864-4 0 9995
2 41844 097.4051 096.0312 0013115 276.0551 152.8000 15.24716897187694
Pegasus-1
1 41846U 16066F 20086.68309939 .00000273 00000-0 50586-4 0 9995
2 41846 098.6726 135.8295 0368085 119.5911 244.2485 14.37726428177078
CAS-2T
1 41847U 16066G 20086.68815451 .00000070 00000-0 20044-4 0 9998
2 41847 98.6655 136.3239 0366766 115.4771 248.4831 14.38050308177526
EO-88
1 42017U 17008BX 20086.75141562 .00001359 00000-0 55256-4 0 9992
2 42017 097.3676 155.4998 0004639 247.4110 112.6638 15.26254682172936
nSIGHT1
1 42726U 98067MF 20086.82122119 .00154586 20941-4 33049-3 0 9994
2 42726 51.6257 287.1141 0005781 235.9299 124.1162 15.98250865162424
CAS-4B
1 42759U 17034B 20086.83690972 .00000104 00000-0 19820-4 0 9991
2 42759 43.0188 120.9576 0011851 236.4217 111.8120 15.09771013153472
CAS-4A
1 42761U 17034D 20086.85214120 .00000238 00000-0 27914-4 0 9994
2 42761 43.0189 120.2290 0012519 236.5842 114.2602 15.09850181153475
UCLSat
1 42765U 17036A 20086.72472487 .00001076 00000-0 48199-4 0 9997
2 42765 97.3112 143.1505 0010165 324.8142 35.2423 15.23335265153390
NIUSat
1 42766U 17036B 20086.80816371 .00000865 00000-0 41319-4 0 9993
2 42766 097.3110 140.9273 0014149 314.9208 045.0879 15.21570889153121
LituanicaSAT 2
1 42768U 17036D 20086.85938539 .00001839 00000-0 79250-4 0 9998
2 42768 097.3165 143.1352 0013274 311.2941 048.7152 15.23750448153260
Aalto 1
1 42775U 17036L 20086.79914102 .00000675 00000-0 32757-4 0 9997
2 42775 097.3092 141.2686 0012545 315.0772 044.9448 15.21717802153104
URSA MAIOR
1 42776U 17036M 20086.79804143 .00000757 00000-0 36233-4 0 9995
2 42776 097.3104 141.5174 0012351 314.9076 045.1157 15.21887007153110
Max Valier Sat
1 42778U 17036P 20086.79604086 .00000818 00000-0 38264-4 0 9995
2 42778 097.3154 142.6785 0010910 319.1562 040.8856 15.22468343153154
Pegasus
1 42784U 17036V 20086.79908124 .00001012 00000-0 45896-4 0 9998
2 42784 097.3118 142.9447 0010743 325.0705 034.9826 15.23035942153199
NUDATSat
1 42787U 17036Y 20086.92473432 .00001470 00000-0 63026-4 0 9998
2 42787 097.3163 144.2787 0011012 324.1262 035.9238 15.24255636153128
SUCHAI 1
1 42788U 17036Z 20086.85226833 .00001222 00000-0 53980-4 0 9995
2 42788 097.3126 143.5108 0010242 323.5340 036.5199 15.23551410153302
SKCUBE
1 42789U 17036AA 20086.82447570 .00001145 00000-0 50989-4 0 9996
2 42789 097.3120 143.3606 0010138 323.9868 036.0685 15.23408115153219
VZLUSAT 1
1 42790U 17036AB 20086.84749079 .00001486 00000-0 63744-4 0 9990
2 42790 097.3142 144.1994 0009575 321.9797 038.0764 15.24247438153261
